EGJB

Guernsey Airport

Saint Peter Port, Guernsey
Issued Wind Visibility Ceiling Temperature Dew Point Humidity Barometer
Oct-19
08:50 UTC
200°
9 KTS
1,802 meters Broken
200' AGL
16° C
61° F
15° C
59° F
94% 29.62" Hg
1003 hPa
LIFR
Oct-19
08:20 UTC
170°
7 KTS
1,802 meters Broken
200' AGL
16° C
61° F
15° C
59° F
94% 29.65" Hg
1004 hPa
LIFR
Oct-19
07:50 UTC
160°
7 KTS
2,205 meters Broken
300' AGL
16° C
61° F
15° C
59° F
94% 29.65" Hg
1004 hPa
LIFR
Oct-19
07:20 UTC
170°
7 KTS
2,800 meters Broken
300' AGL
15° C
59° F
15° C
59° F
100% 29.65" Hg
1004 hPa
LIFR
Oct-19
06:50 UTC
170°
6 KTS
1,996 meters Broken
200' AGL
15° C
59° F
15° C
59° F
100% 29.65" Hg
1004 hPa
LIFR
Oct-19
06:20 UTC
120°
8 KTS
1,802 meters Broken
200' AGL
15° C
59° F
15° C
59° F
100% 29.65" Hg
1004 hPa
LIFR
Oct-19
05:50 UTC
130°
6 KTS
1,802 meters Broken
200' AGL
15° C
59° F
15° C
59° F
100% 29.65" Hg
1004 hPa
LIFR
Oct-19
05:20 UTC
120°
9 KTS
1,802 meters Broken
200' AGL
15° C
59° F
15° C
59° F
100% 29.65" Hg
1004 hPa
LIFR
Oct-19
04:50 UTC
120°
8 KTS
1,802 meters Broken
200' AGL
15° C
59° F
15° C
59° F
100% 29.68" Hg
1005 hPa
LIFR
Oct-19
04:20 UTC
120°
7 KTS
2,993 meters   15° C
59° F
15° C
59° F
100% 29.68" Hg
1005 hPa
IFR
Oct-19
03:50 UTC
120°
9 KTS
805 meters Broken
0' AGL
15° C
59° F
15° C
59° F
100% 29.68" Hg
1005 hPa
LIFR
Oct-19
03:20 UTC
120°
7 KTS
10,000+ meters   15° C
59° F
14° C
57° F
94% 29.7" Hg
1006 hPa
VFR
Oct-19
02:50 UTC
100°
6 KTS
10,000+ meters   14° C
57° F
13° C
55° F
94% 29.7" Hg
1006 hPa
VFR
Oct-18
19:50 UTC
10,000+ meters   13° C
55° F
12° C
54° F
94% 29.82" Hg
1010 hPa
VFR
Oct-18
19:20 UTC
330°
3 KTS
10,000+ meters   13° C
55° F
12° C
54° F
94% 29.82" Hg
1010 hPa
VFR
Oct-18
18:50 UTC
330°
2 KTS
10,000+ meters   13° C
55° F
12° C
54° F
94% 29.82" Hg
1010 hPa
VFR
Oct-18
18:20 UTC
10,000+ meters   13° C
55° F
13° C
55° F
100% 29.82" Hg
1010 hPa
VFR
Oct-18
17:50 UTC
330°
2 KTS
10,000+ meters   13° C
55° F
12° C
54° F
94% 29.82" Hg
1010 hPa
VFR
Oct-18
17:20 UTC
10,000+ meters   14° C
57° F
13° C
55° F
94% 29.82" Hg
1010 hPa
VFR
Oct-18
16:50 UTC
320°
2 KTS
10,000+ meters   14° C
57° F
13° C
55° F
94% 29.79" Hg
1009 hPa
VFR
Oct-18
16:20 UTC
310°
3 KTS
10,000+ meters   15° C
59° F
13° C
55° F
88% 29.79" Hg
1009 hPa
VFR
Oct-18
15:50 UTC
280°
4 KTS
10,000+ meters   15° C
59° F
13° C
55° F
88% 29.82" Hg
1010 hPa
VFR
Oct-18
15:20 UTC
270°
7 KTS
10,000+ meters Broken
3,200' AGL
15° C
59° F
13° C
55° F
88% 29.82" Hg
1010 hPa
VFR
Oct-18
14:50 UTC
260°
7 KTS
10,000+ meters Broken
3,400' AGL
15° C
59° F
13° C
55° F
88% 29.82" Hg
1010 hPa
VFR
Oct-18
14:20 UTC
280°
6 KTS
10,000+ meters   16° C
61° F
13° C
55° F
83% 29.82" Hg
1010 hPa
VFR
Oct-18
13:50 UTC
280°
6 KTS
10,000+ meters   16° C
61° F
14° C
57° F
88% 29.79" Hg
1009 hPa
VFR
Oct-18
13:20 UTC
270°
7 KTS
10,000+ meters   16° C
61° F
14° C
57° F
88% 29.82" Hg
1010 hPa
VFR
Oct-18
12:50 UTC
250°
5 KTS
10,000+ meters   16° C
61° F
14° C
57° F
88% 29.82" Hg
1010 hPa
VFR
Oct-18
12:20 UTC
250°
6 KTS
10,000+ meters   16° C
61° F
14° C
57° F
88% 29.82" Hg
1010 hPa
VFR
Oct-18
11:50 UTC
230°
7 KTS
10,000+ meters   16° C
61° F
14° C
57° F
88% 29.82" Hg
1010 hPa
VFR
Oct-18
11:20 UTC
250°
8 KTS
10,000+ meters   16° C
61° F
14° C
57° F
88% 29.82" Hg
1010 hPa
VFR
Oct-18
10:50 UTC
230°
7 KTS
10,000+ meters   16° C
61° F
15° C
59° F
94% 29.82" Hg
1010 hPa
VFR
Oct-18
10:20 UTC
220°
9 KTS
10,000+ meters Broken
800' AGL
15° C
59° F
14° C
57° F
94% 29.82" Hg
1010 hPa
IFR
Oct-18
09:50 UTC
220°
7 KTS
10,000+ meters Broken
800' AGL
15° C
59° F
15° C
59° F
100% 29.82" Hg
1010 hPa
IFR
Oct-18
09:20 UTC
220°
8 KTS
10,000+ meters Broken
800' AGL
15° C
59° F
15° C
59° F
100% 29.82" Hg
1010 hPa
IFR